Voltar ao catálogo

GEESAT 2-03

AtivoCiênciaVLEO
NORAD 58907·PAYLOAD·🇨🇳 China

Lançado Feb 2, 2024 de Xichang Satellite Launch Center

Loading…

Próximas Passagens (próximas 24 horas)

TLE

AtualizadoSource: Space-Track

Época: Sep 14, 2026, 22:42 UTC

1 58907U 24023C   26257.94622033  .00001114  00000-0  11655-3 0  9999
2 58907  50.0010 259.3863 0006030  23.5586 336.5633 14.97396780142775

Acompanhe GEESAT 2-03 em tempo real com AllMySat

Download on the App Store